Location: Bailleul
(50.3375°N, 2.8513°E)
Time: 04:51:19
(UTC+00:00)

IRIDIUM 104 - Pass Details

Date: 19 April 2021
Orbit: 776 x 779 km, 86.4° (Epoch: 09 May)

Event Time Altitude Azimuth Distance (km) Brightness Sun altitude
Exits shadow 20:05:47 - 167° (SSE) 2,623 6.6 -11.6°
Reaches altitude 10° 20:06:34 10° 165° (SSE) 2,326 6.4 -11.7°
Maximum altitude 20:11:38 57° 88° (E) 920 4.4 -12.4°
Drops below altitude 10° 20:16:46 10° 11° (NNE) 2,341 7.2 -13.1°
Sets 20:19:09 0° 8° (N) 3,273 8.0 -13.4°
